EW2270 Weather Reports


Display with metric or nautical units.
time (UTC)temp
F
wind
direction
speed
MPH
gust
MPH
rain 1hr
in
rain 24hr
in
rain mn
in
humidity
%
barometer
mb
20260510230055 72 336 0.0 5.0 0.00 0.00 0.00 38 1013.1
20260510224553 71 7 2.0 5.0 0.00 0.00 0.00 39 1013.6
20260510223052 71 274 4.0 6.0 0.00 0.00 0.00 38 1013.7
20260510221551 71 314 1.0 8.0 0.00 0.00 0.00 40 1013.6
20260510220051 70 297 3.0 9.0 0.00 0.00 0.00 43 1013.9
20260510214549 70 276 4.0 8.0 0.00 0.00 0.00 40 1013.8
20260510213049 71 276 6.0 9.0 0.00 0.00 0.00 40 1013.7
20260510211548 72 110 0.0 4.0 0.00 0.00 0.00 39 1013.5
20260510210047 70 288 3.0 10.0 0.00 0.00 0.00 42 1013.7
20260510204545 70 307 5.0 10.0 0.00 0.00 0.00 45 1013.7
20260510203045 70 266 6.0 12.0 0.00 0.00 0.00 45 1013.7
20260510201545 70 249 7.0 12.0 0.00 0.00 0.00 44 1013.4
20260510200044 69 323 3.0 6.0 0.00 0.00 0.00 46 1013.2
20260510194542 70 283 4.0 8.0 0.00 0.00 0.00 43 1013.5
20260510193041 70 292 6.0 12.0 0.00 0.00 0.00 41 1013.8
20260510191540 70 289 7.0 10.0 0.00 0.00 0.00 42 1013.8
20260510190043 69 295 5.0 8.0 0.00 0.00 0.00 43 1013.6
20260510184540 69 276 3.0 8.0 0.00 0.00 0.00 43 1013.4
20260510183038 68 222 1.0 6.0 0.00 0.00 0.00 44 1013.3
20260510181534 68 298 1.0 3.0 0.00 0.00 0.00 46 1013.6
20260510180034 67 321 0.0 5.0 0.00 0.00 0.00 47 1013.4
20260510174529 66 268 5.0 7.0 0.00 0.00 0.00 48 1013.6
20260510173027 65 274 6.0 10.0 0.00 0.00 0.00 50 1013.9
20260510171528 65 274 3.0 6.0 0.00 0.00 0.00 48 1013.5
20260510170023 64 295 2.0 4.0 0.00 0.00 0.00 49 1013.5
20260510164520 63 310 2.0 6.0 0.00 0.00 0.00 53 1013.8
20260510163019 62 310 4.0 7.0 0.00 0.00 0.00 55 1014.0
20260510161518 62 290 7.0 13.0 0.00 0.00 0.00 52 1013.8
20260510160017 63 282 5.0 9.0 0.00 0.00 0.00 51 1014.0
20260510154517 63 309 0.0 5.0 0.00 0.00 0.00 53 1013.9
20260510153011 60 20 2.0 4.0 0.00 0.00 0.00 56 1014.3
20260510151508 59 321 2.0 3.0 0.00 0.00 0.00 61 1014.5
20260510150003 56 47 1.0 4.0 0.00 0.00 0.00 75 1014.6
20260510144502 55 298 2.0 3.0 0.00 0.00 0.00 76 1014.5
20260510143110 55 139 0.0 1.0 0.00 0.00 0.00 77 1014.2
20260510141603 52 139 0.0 2.0 0.00 0.00 0.00 77 1014.3
20260510140052 50 139 0.0 1.0 0.00 0.00 0.00 80 1014.2
20260510134604 49 139 1.0 2.0 0.00 0.00 0.00 79 1013.9
20260510133050 47 139 0.0 3.0 0.00 0.00 0.00 83 1013.8
20260510131550 46 116 0.0 2.0 0.00 0.00 0.00 81 1013.4
20260510130049 45 116 0.0 1.0 0.00 0.00 0.00 81 1013.6
20260510124554 45 116 0.0 2.0 0.00 0.00 0.00 86 1013.5
20260510123045 44 138 1.0 2.0 0.00 0.00 0.00 85 1013.5
20260510121543 44 138 2.0 2.0 0.00 0.00 0.00 85 1013.5
20260510120042 45 138 0.0 2.0 0.00 0.00 0.00 85 1013.4
20260510114541 45 138 1.0 2.0 0.00 0.00 0.00 85 1013.4
20260510113039 45 138 0.0 0.0 0.00 0.00 0.00 85 1013.4
20260510111552 45 138 0.0 1.0 0.00 0.00 0.00 86 1013.4
20260510110038 46 138 0.0 0.0 0.00 0.00 0.00 80 1013.5
20260510104545 48 138 0.0 1.0 0.00 0.00 0.00 81 1013.4
20260510103037 46 138 1.0 2.0 0.00 0.00 0.00 84 1013.6
20260510101534 45 138 2.0 2.0 0.00 0.00 0.00 86 1013.7
20260510100030 44 138 2.0 2.0 0.00 0.00 0.00 86 1013.9
20260510094531 45 138 0.0 1.0 0.00 0.00 0.00 85 1013.9
20260510093025 45 138 0.0 3.0 0.00 0.00 0.00 85 1013.9
20260510091526 45 123 0.0 2.0 0.00 0.00 0.00 84 1013.9
20260510090020 46 123 0.0 2.0 0.00 0.00 0.00 83 1014.1
20260510084517 47 123 0.0 2.0 0.00 0.00 0.00 80 1014.3
20260510083015 47 123 2.0 0.0 0.00 0.00 0.00 80 1014.3
20260510081513 47 123 1.0 2.0 0.00 0.00 0.00 78 1014.4
20260510080011 48 123 0.0 2.0 0.00 0.00 0.00 80 1014.4
20260510074508 50 123 0.0 3.0 0.00 0.00 0.00 78 1014.4
20260510073006 50 137 0.0 1.0 0.00 0.00 0.00 77 1014.5
20260510071502 51 137 0.0 2.0 0.00 0.00 0.00 75 1014.3
20260510070000 51 137 0.0 1.0 0.00 0.00 0.00 77 1014.3
20260510064601 50 137 0.0 2.0 0.00 0.00 0.00 76 1014.5
20260510063106 51 137 0.0 1.0 0.00 0.00 0.00 77 1014.4
20260510061559 50 137 1.0 2.0 0.00 0.00 0.00 75 1014.4
20260510060101 51 137 0.0 0.0 0.00 0.00 0.00 74 1014.4
20260510054559 53 137 0.0 1.0 0.00 0.00 0.00 69 1014.4
20260510053059 52 137 0.0 1.0 0.00 0.00 0.00 71 1014.7
20260510051642 54 137 0.0 3.0 0.00 0.00 0.00 69 1014.8
20260510050054 52 213 3.0 4.0 0.00 0.00 0.00 74 1015.0
20260510044554 56 139 1.0 3.0 0.00 0.00 0.00 66 1014.8
20260510043139 56 193 0.0 1.0 0.00 0.00 0.00 68 1015.0
20260510041554 59 193 0.0 2.0 0.00 0.00 0.00 63 1015.1
20260510040051 59 194 0.0 2.0 0.00 0.00 0.00 59 1015.0
20260510034554 62 110 0.0 3.0 0.00 0.00 0.00 55 1014.9
20260510033056 65 40 4.0 7.0 0.00 0.00 0.00 47 1014.9
20260510031620 66 72 3.0 7.0 0.00 0.00 0.00 46 1014.8
20260510030052 66 64 4.0 7.0 0.00 0.00 0.00 46 1014.8
20260510024547 67 84 4.0 6.0 0.00 0.00 0.00 49 1014.8
20260510023054 68 51 3.0 6.0 0.00 0.00 0.00 48 1014.8
20260510021546 70 51 4.0 8.0 0.00 0.00 0.00 44 1015.0
20260510020048 71 45 5.0 9.0 0.00 0.00 0.00 41 1015.1
20260510014544 72 49 6.0 9.0 0.00 0.00 0.00 41 1015.1
20260510013041 72 65 6.0 10.0 0.00 0.00 0.00 39 1015.2
20260510011553 73 41 7.0 12.0 0.00 0.00 0.00 38 1015.4
20260510010044 73 37 9.0 12.0 0.00 0.00 0.00 38 1015.5
20260510004536 74 11 7.0 13.0 0.00 0.00 0.00 33 1015.5
20260510003035 75 349 5.0 8.0 0.00 0.00 0.00 27 1015.6
20260510001532 74 331 3.0 9.0 0.00 0.00 0.00 27 1015.7
20260510000029 74 327 2.0 8.0 0.00 0.00 0.00 30 1015.7
20260509234527 74 14 6.0 10.0 0.00 0.00 0.00 29 1015.9
20260509233028 74 326 6.0 10.0 0.00 0.00 0.00 33 1016.1
20260509231522 74 311 3.0 9.0 0.00 0.00 0.00 36 1016.3